Glendale Luke AFB, AZ

3:46 AM MST on December 16, 2019 (GMT -0700)
Luke Air Force Base

Weather History for KLUF - August, 2019

Change the Weather History Date:

Friday, August 9, 2019

  Actual Average Record
Temperature  
Mean Temperature 94 °F -  
Max Temperature 100 °F 106 °F 114 °F (1933)
Min Temperature 87 °F 76 °F 66 °F (1956)
Cooling Degree Days 28    
Growing Degree Days 44 (Base 50)    
Moisture  
Dew Point 62 °F    
Average Humidity 38    
Maximum Humidity 49    
Minimum Humidity 24    
Precipitation  
Precipitation 0.02 in - - ()
Sea Level Pressure  
Sea Level Pressure 29.82 in    
Wind  
Wind Speed 10 mph (SW)    
Max Wind Speed 22 mph    
Max Gust Speed -    
Visibility 10 miles    
Events Rain , Thunderstorm    
Averages and records for this station are not official NWS values.
T = Trace of Precipitation, MM = Missing Value Source: NWS Daily Summary

Daily Weather History Graph

Daily Weather History Graph

Search for Another Location

Airport or City:

Astronomy

Aug. 09, 2019 Rise Set
Actual Time 5:47 AM MST 7:22 PM MST
Civil Twilight 5:20 AM MST 7:48 PM MST
Nautical Twilight 4:48 AM MST 8:20 PM MST
Astronomical Twilight 4:15 AM MST 8:54 PM MST
Moon 3:03 PM MST (8/9) 12:48 AM MST (8/9)
Length of Visible Light 14h 27m
Length of Day
13h 34m
Waxing Gibbous, 71% of the Moon is Illuminated
Aug 9
Waxing Gibbous
Aug 15
Full
Aug 23
Last Quarter
Aug 30
New
Sep 5
First Quarter

Hourly Weather History & Observations

Time (MST) Temp. Heat Index Dew Point Humidity Pressure Visibility Wind Dir Wind Speed Gust Speed Precip Events Conditions
12:58 AM 95.7 °F 93.7 °F 54.1 °F 25% 29.76 in 10.0 mi SW 15.0 mph - N/A   Clear
1:58 AM 93.0 °F 90.6 °F 53.1 °F 26% 29.73 in 10.0 mi SW 11.5 mph - N/A   Clear
2:58 AM 91.8 °F - 52.0 °F 26% 29.73 in 10.0 mi SW 15.0 mph - N/A   Scattered Clouds
3:58 AM 89.2 °F 89.0 °F 60.3 °F 38% 29.74 in 10.0 mi SW 21.9 mph - N/A   Mostly Cloudy
4:58 AM 88.5 °F 89.5 °F 63.7 °F 43% 29.76 in 10.0 mi SW 17.3 mph - N/A   Mostly Cloudy
5:58 AM 87.4 °F 89.8 °F 66.4 °F 49% 29.79 in 10.0 mi WSW 10.4 mph - N/A   Scattered Clouds
6:58 AM 88.3 °F 90.5 °F 66.0 °F 47% 29.81 in 10.0 mi SW 9.2 mph - N/A   Partly Cloudy
7:58 AM 89.8 °F 91.8 °F 65.5 °F 44% 29.84 in 10.0 mi SSW 13.8 mph - N/A   Clear
8:05 AM 89.6 °F 92.2 °F 66.2 °F 46% 29.84 in 10.0 mi SSW 13.8 mph - N/A   Light Drizzle
8:07 AM 89.6 °F 92.2 °F 66.2 °F 46% 29.84 in 10.0 mi SSW 13.8 mph - N/A   Partly Cloudy
8:46 AM 91.4 °F 93.2 °F 64.4 °F 41% 29.86 in 10.0 mi WSW 12.7 mph - N/A Thunderstorm Thunderstorm
8:58 AM 90.3 °F 89.3 °F 58.1 °F 34% 29.86 in 10.0 mi West 15.0 mph - 0.00 in Thunderstorm Thunderstorm
9:06 AM 87.8 °F 87.1 °F 59.0 °F 38% 29.86 in 10.0 mi West 15.0 mph - N/A Thunderstorm Mostly Cloudy
9:33 AM 87.8 °F 89.4 °F 64.4 °F 46% 29.87 in 10.0 mi West 8.1 mph - N/A Rain Light Rain
9:34 AM 87.8 °F 89.4 °F 64.4 °F 46% 29.87 in 10.0 mi West 8.1 mph - N/A Rain Light Rain
9:40 AM 87.8 °F 87.6 °F 60.8 °F 40% 29.87 in 10.0 mi WNW 4.6 mph - N/A Rain Light Rain
9:44 AM 87.8 °F 89.4 °F 64.4 °F 46% 29.87 in 10.0 mi NW 5.8 mph - N/A   Mostly Cloudy
9:58 AM 89.1 °F 90.6 °F 64.2 °F 44% 29.87 in 10.0 mi NW 5.8 mph - 0.00 in   Scattered Clouds
10:20 AM 89.6 °F 91.1 °F 64.4 °F 43% 29.87 in 10.0 mi WNW 4.6 mph - N/A Rain Light Rain
10:25 AM 89.6 °F 91.1 °F 64.4 °F 43% 29.87 in 9.0 mi WNW 4.6 mph - N/A Rain Rain
10:38 AM 89.6 °F 92.2 °F 66.2 °F 46% 29.87 in 10.0 mi Calm Calm - N/A   Scattered Clouds
10:40 AM 89.6 °F 92.2 °F 66.2 °F 46% 29.87 in 10.0 mi Calm Calm - N/A Rain Light Rain
10:50 AM 89.6 °F 91.1 °F 64.4 °F 43% 29.87 in 9.0 mi Calm Calm - N/A Rain Light Rain
10:54 AM 89.6 °F 90.1 °F 62.6 °F 40% 29.87 in 10.0 mi Calm Calm - N/A   Mostly Cloudy
10:55 AM 89.6 °F 90.1 °F 62.6 °F 40% 29.87 in 10.0 mi Calm Calm - N/A   Light Drizzle
10:58 AM 90.1 °F 91.6 °F 63.9 °F 42% 29.87 in 10.0 mi Calm Calm - 0.02 in Rain Light Rain
11:05 AM 91.4 °F 92.1 °F 62.6 °F 38% 29.87 in 10.0 mi SSE 4.6 mph - N/A   Scattered Clouds
11:10 AM 91.4 °F 92.1 °F 62.6 °F 38% 29.86 in 10.0 mi SSE 4.6 mph - N/A   Scattered Clouds
11:45 AM 93.2 °F 93.3 °F 60.8 °F 34% 29.86 in 10.0 mi East 4.6 mph - N/A   Light Drizzle
11:58 AM 94.3 °F 95.8 °F 63.1 °F 36% 29.84 in 10.0 mi SE 4.6 mph - 0.00 in   Scattered Clouds
12:58 PM 96.3 °F 98.1 °F 63.3 °F 34% 29.82 in 10.0 mi East 6.9 mph - N/A   Mostly Cloudy
1:26 PM 96.8 °F 98.0 °F 62.6 °F 32% 29.83 in 10.0 mi SE 12.7 mph - N/A   Light Drizzle
1:30 PM 95.0 °F 95.2 °F 60.8 °F 32% 29.83 in 10.0 mi SSE 10.4 mph - N/A   Scattered Clouds
1:58 PM 97.7 °F 98.5 °F 61.0 °F 30% 29.81 in 10.0 mi SSE 8.1 mph - 0.00 in   Scattered Clouds
2:58 PM 97.3 °F 97.5 °F 59.7 °F 29% 29.78 in 10.0 mi SSE 6.9 mph - N/A   Scattered Clouds
3:58 PM 100.6 °F 100.0 °F 57.2 °F 24% 29.75 in 10.0 mi SE 3.5 mph - N/A   Partly Cloudy
4:58 PM 99.0 °F 98.1 °F 56.8 °F 25% 29.74 in 10.0 mi ESE 4.6 mph - N/A   Clear
5:56 PM 98.1 °F 97.7 °F 58.3 °F 27% 29.73 in 10.0 mi NW 4.6 mph - N/A   Clear
6:56 PM 97.5 °F 96.5 °F 56.8 °F 26% 29.73 in 10.0 mi NE 3.5 mph - N/A   Clear
7:56 PM 95.4 °F 94.6 °F 57.9 °F 29% 29.74 in 10.0 mi ENE 3.5 mph - N/A   Clear
8:56 PM 92.3 °F 91.6 °F 59.7 °F 33% 29.75 in 10.0 mi Calm Calm - N/A   Clear
9:56 PM 90.1 °F 90.2 °F 61.7 °F 38% 29.76 in 10.0 mi Calm Calm - N/A   Clear
10:56 PM 89.4 °F 89.5 °F 61.2 °F 39% 29.76 in 10.0 mi NW 4.6 mph - N/A   Clear
11:56 PM 87.1 °F 87.5 °F 61.9 °F 43% 29.76 in 10.0 mi North 5.8 mph - N/A   Clear